Time,TemperatureF,DewpointF,PressureIn,WindDirection,WindDirectionDegrees,WindSpeedMPH,WindSpeedGustMPH,Humidity,HourlyPrecipIn,Conditions,Clouds,dailyrainin,SolarRadiationWatts/m^2,SoftwareType,DateUTC
2013-02-06 00:11:00,32.0,27.0,-100.00,SW,236,8.0,11.0,80,0.00,,,0.00,0.000000,,2013-02-06 08:11:00,
2013-02-06 00:21:00,32.0,27.0,-100.00,SW,236,8.0,11.0,80,0.00,,,0.00,0.000000,,2013-02-06 08:21:00,
2013-02-06 00:31:00,32.0,27.0,-100.00,SW,236,8.0,11.0,80,0.00,,,0.00,0.000000,,2013-02-06 08:31:00,
2013-02-06 00:41:00,32.0,27.0,-100.00,SW,236,8.0,11.0,80,0.00,,,0.00,0.000000,,2013-02-06 08:41:00,
2013-02-06 01:11:00,34.0,28.0,-100.00,SW,223,2.0,8.0,77,0.00,,,0.00,0.000000,,2013-02-06 09:11:00,
2013-02-06 01:21:00,34.0,28.0,-100.00,SW,223,2.0,8.0,77,0.00,,,0.00,0.000000,,2013-02-06 09:21:00,
2013-02-06 01:31:00,34.0,28.0,-100.00,SW,223,2.0,8.0,77,0.00,,,0.00,0.000000,,2013-02-06 09:31:00,
2013-02-06 01:41:00,34.0,28.0,-100.00,SW,223,2.0,8.0,77,0.00,,,0.00,0.000000,,2013-02-06 09:41:00,
2013-02-06 02:11:00,32.0,26.0,-100.00,East,99,0.0,5.0,79,0.00,,,0.00,0.000000,,2013-02-06 10:11:00,
2013-02-06 02:21:00,32.0,26.0,-100.00,East,99,0.0,5.0,79,0.00,,,0.00,0.000000,,2013-02-06 10:21:00,
2013-02-06 02:31:00,32.0,26.0,-100.00,East,99,0.0,5.0,79,0.00,,,0.00,0.000000,,2013-02-06 10:31:00,
2013-02-06 02:41:00,32.0,26.0,-100.00,East,99,0.0,5.0,79,0.00,,,0.00,0.000000,,2013-02-06 10:41:00,
2013-02-06 03:11:00,33.0,28.0,-100.00,WSW,249,6.0,9.0,80,0.00,,,0.00,0.000000,,2013-02-06 11:11:00,
2013-02-06 03:22:00,33.0,28.0,-100.00,WSW,249,6.0,9.0,80,0.00,,,0.00,0.000000,,2013-02-06 11:22:00,
2013-02-06 03:32:00,33.0,28.0,-100.00,WSW,249,6.0,9.0,80,0.00,,,0.00,0.000000,,2013-02-06 11:32:00,
2013-02-06 03:42:00,33.0,28.0,-100.00,WSW,249,6.0,9.0,80,0.00,,,0.00,0.000000,,2013-02-06 11:42:00,
2013-02-06 04:12:00,34.0,28.0,-100.00,West,267,8.0,16.0,79,0.00,,,0.00,0.000000,,2013-02-06 12:12:00,
2013-02-06 04:22:00,34.0,28.0,-100.00,West,267,8.0,16.0,79,0.00,,,0.00,0.000000,,2013-02-06 12:22:00,
2013-02-06 04:32:00,34.0,28.0,-100.00,West,267,8.0,16.0,79,0.00,,,0.00,0.000000,,2013-02-06 12:32:00,
2013-02-06 04:42:00,34.0,28.0,-100.00,West,267,8.0,16.0,79,0.00,,,0.00,0.000000,,2013-02-06 12:42:00,
2013-02-06 05:11:00,29.0,26.0,-100.00,South,177,5.0,9.0,87,0.00,,,0.00,0.000000,,2013-02-06 13:11:00,
2013-02-06 05:21:00,29.0,26.0,-100.00,South,177,5.0,9.0,87,0.00,,,0.00,0.000000,,2013-02-06 13:21:00,
2013-02-06 05:31:00,29.0,26.0,-100.00,South,177,5.0,9.0,87,0.00,,,0.00,0.000000,,2013-02-06 13:31:00,
2013-02-06 05:42:00,29.0,26.0,-100.00,South,177,5.0,9.0,87,0.00,,,0.00,0.000000,,2013-02-06 13:42:00,
2013-02-06 06:11:00,29.0,26.0,-100.00,SSE,166,1.0,9.0,88,0.00,,,0.00,0.000000,,2013-02-06 14:11:00,
2013-02-06 06:21:00,29.0,26.0,-100.00,SSE,166,1.0,9.0,88,0.00,,,0.00,0.000000,,2013-02-06 14:21:00,
2013-02-06 06:31:00,29.0,26.0,-100.00,SSE,166,1.0,9.0,88,0.00,,,0.00,0.000000,,2013-02-06 14:31:00,
2013-02-06 06:41:00,29.0,26.0,-100.00,SSE,166,1.0,9.0,88,0.00,,,0.00,0.000000,,2013-02-06 14:41:00,
2013-02-06 07:11:00,27.0,24.0,-100.00,NW,321,0.0,7.0,90,0.00,,,0.00,0.000000,,2013-02-06 15:11:00,
2013-02-06 07:21:00,27.0,24.0,-100.00,NW,321,0.0,7.0,90,0.00,,,0.00,0.000000,,2013-02-06 15:21:00,
2013-02-06 07:31:00,27.0,24.0,-100.00,NW,321,0.0,7.0,90,0.00,,,0.00,0.000000,,2013-02-06 15:31:00,
2013-02-06 07:41:00,27.0,24.0,-100.00,NW,321,0.0,7.0,90,0.00,,,0.00,0.000000,,2013-02-06 15:41:00,
2013-02-06 08:11:00,32.0,28.0,-100.00,SSW,199,2.0,7.0,85,0.00,,,0.00,0.000000,,2013-02-06 16:11:00,
2013-02-06 08:21:00,32.0,28.0,-100.00,SSW,199,2.0,7.0,85,0.00,,,0.00,0.000000,,2013-02-06 16:21:00,
2013-02-06 08:32:00,32.0,28.0,-100.00,SSW,199,2.0,7.0,85,0.00,,,0.00,0.000000,,2013-02-06 16:32:00,
2013-02-06 08:41:00,32.0,28.0,-100.00,SSW,199,2.0,7.0,85,0.00,,,0.00,0.000000,,2013-02-06 16:41:00,
2013-02-06 09:11:00,32.0,28.0,-100.00,SSE,166,6.0,7.0,84,0.00,,,0.00,64.000000,,2013-02-06 17:11:00,
2013-02-06 09:21:00,32.0,28.0,-100.00,SSE,166,6.0,7.0,84,0.00,,,0.00,64.000000,,2013-02-06 17:21:00,
2013-02-06 09:32:00,32.0,28.0,-100.00,SSE,166,6.0,7.0,84,0.00,,,0.00,64.000000,,2013-02-06 17:32:00,
2013-02-06 09:41:00,32.0,28.0,-100.00,SSE,166,6.0,7.0,84,0.00,,,0.00,64.000000,,2013-02-06 17:41:00,
2013-02-06 10:11:00,35.0,29.0,-100.00,ESE,122,4.0,8.0,77,0.00,,,0.00,241.000000,,2013-02-06 18:11:00,
2013-02-06 10:22:00,35.0,29.0,-100.00,ESE,122,4.0,8.0,77,0.00,,,0.00,241.000000,,2013-02-06 18:22:00,
2013-02-06 10:32:00,35.0,29.0,-100.00,ESE,122,4.0,8.0,77,0.00,,,0.00,241.000000,,2013-02-06 18:32:00,
2013-02-06 10:41:00,35.0,29.0,-100.00,ESE,122,4.0,8.0,77,0.00,,,0.00,241.000000,,2013-02-06 18:41:00,
2013-02-06 11:11:00,35.0,30.0,-100.00,SSE,158,6.0,9.0,81,0.00,,,0.00,219.000000,,2013-02-06 19:11:00,
2013-02-06 11:21:00,35.0,30.0,-100.00,SSE,158,6.0,9.0,81,0.00,,,0.00,219.000000,,2013-02-06 19:21:00,
2013-02-06 11:31:00,35.0,30.0,-100.00,SSE,158,6.0,9.0,81,0.00,,,0.00,219.000000,,2013-02-06 19:31:00,
2013-02-06 11:41:00,35.0,30.0,-100.00,SSE,158,6.0,9.0,81,0.00,,,0.00,219.000000,,2013-02-06 19:41:00,
2013-02-06 12:11:00,36.0,31.0,-100.00,South,173,8.0,11.0,83,0.00,,,0.00,218.000000,,2013-02-06 20:11:00,
2013-02-06 12:21:00,36.0,31.0,-100.00,South,173,8.0,11.0,83,0.00,,,0.00,218.000000,,2013-02-06 20:21:00,
2013-02-06 12:31:00,36.0,31.0,-100.00,South,173,8.0,11.0,83,0.00,,,0.00,218.000000,,2013-02-06 20:31:00,
2013-02-06 12:41:00,36.0,31.0,-100.00,South,173,8.0,11.0,83,0.00,,,0.00,218.000000,,2013-02-06 20:41:00,
2013-02-06 13:11:00,39.0,33.0,-100.00,South,188,5.0,8.0,78,0.00,,,0.00,337.000000,,2013-02-06 21:11:00,
2013-02-06 13:21:00,39.0,33.0,-100.00,South,188,5.0,8.0,78,0.00,,,0.00,337.000000,,2013-02-06 21:21:00,
2013-02-06 13:31:00,39.0,33.0,-100.00,South,188,5.0,8.0,78,0.00,,,0.00,337.000000,,2013-02-06 21:31:00,
2013-02-06 13:41:00,39.0,33.0,-100.00,South,188,5.0,8.0,78,0.00,,,0.00,337.000000,,2013-02-06 21:41:00,
2013-02-06 14:11:00,38.0,32.0,-100.00,South,191,6.0,8.0,79,0.00,,,0.00,206.000000,,2013-02-06 22:11:00,
2013-02-06 14:21:00,38.0,32.0,-100.00,South,191,6.0,8.0,79,0.00,,,0.00,206.000000,,2013-02-06 22:21:00,
2013-02-06 14:31:00,38.0,32.0,-100.00,South,191,6.0,8.0,79,0.00,,,0.00,206.000000,,2013-02-06 22:31:00,
2013-02-06 14:41:00,38.0,32.0,-100.00,South,191,6.0,8.0,79,0.00,,,0.00,206.000000,,2013-02-06 22:41:00,
2013-02-06 15:11:00,42.0,33.0,-100.00,SW,230,0.0,6.0,69,0.00,,,0.00,147.000000,,2013-02-06 23:11:00,
2013-02-06 15:21:00,42.0,33.0,-100.00,SW,230,0.0,6.0,69,0.00,,,0.00,147.000000,,2013-02-06 23:21:00,
2013-02-06 15:31:00,42.0,33.0,-100.00,SW,230,0.0,6.0,69,0.00,,,0.00,147.000000,,2013-02-06 23:31:00,
2013-02-06 15:41:00,42.0,33.0,-100.00,SW,230,0.0,6.0,69,0.00,,,0.00,147.000000,,2013-02-06 23:41:00,
2013-02-06 16:11:00,36.0,31.0,-100.00,SE,145,7.0,9.0,82,0.00,,,0.00,46.000000,,2013-02-07 00:11:00,
2013-02-06 16:21:00,36.0,31.0,-100.00,SE,145,7.0,9.0,82,0.00,,,0.00,46.000000,,2013-02-07 00:21:00,
2013-02-06 16:31:00,36.0,31.0,-100.00,SE,145,7.0,9.0,82,0.00,,,0.00,46.000000,,2013-02-07 00:31:00,
2013-02-06 16:41:00,36.0,31.0,-100.00,SE,145,7.0,9.0,82,0.00,,,0.00,46.000000,,2013-02-07 00:41:00,
2013-02-06 17:11:00,36.0,32.0,-100.00,SE,139,7.0,12.0,84,0.00,,,0.00,0.000000,,2013-02-07 01:11:00,
2013-02-06 17:21:00,36.0,32.0,-100.00,SE,139,7.0,12.0,84,0.00,,,0.00,0.000000,,2013-02-07 01:21:00,
2013-02-06 17:31:00,36.0,32.0,-100.00,SE,139,7.0,12.0,84,0.00,,,0.00,0.000000,,2013-02-07 01:31:00,
2013-02-06 17:41:00,36.0,32.0,-100.00,SE,139,7.0,12.0,84,0.00,,,0.00,0.000000,,2013-02-07 01:41:00,
2013-02-06 18:11:00,34.0,30.0,-100.00,SE,142,7.0,10.0,85,0.00,,,0.00,0.000000,,2013-02-07 02:11:00,
2013-02-06 18:21:00,34.0,30.0,-100.00,SE,142,7.0,10.0,85,0.00,,,0.00,0.000000,,2013-02-07 02:21:00,
2013-02-06 18:31:00,34.0,30.0,-100.00,SE,142,7.0,10.0,85,0.00,,,0.00,0.000000,,2013-02-07 02:31:00,
2013-02-06 18:41:00,34.0,30.0,-100.00,SE,142,7.0,10.0,85,0.00,,,0.00,0.000000,,2013-02-07 02:41:00,
2013-02-06 19:11:00,35.0,32.0,-100.00,SE,131,6.0,9.0,87,0.00,,,0.00,0.000000,,2013-02-07 03:11:00,
2013-02-06 19:21:00,35.0,32.0,-100.00,SE,131,6.0,9.0,87,0.00,,,0.00,0.000000,,2013-02-07 03:21:00,
2013-02-06 19:31:00,35.0,32.0,-100.00,SE,131,6.0,9.0,87,0.00,,,0.00,0.000000,,2013-02-07 03:31:00,
2013-02-06 19:41:00,35.0,32.0,-100.00,SE,131,6.0,9.0,87,0.00,,,0.00,0.000000,,2013-02-07 03:41:00,
2013-02-06 20:11:00,36.0,32.0,-100.00,SE,138,8.0,13.0,84,0.00,,,0.00,0.000000,,2013-02-07 04:11:00,
2013-02-06 20:22:00,36.0,32.0,-100.00,SE,138,8.0,13.0,84,0.00,,,0.00,0.000000,,2013-02-07 04:22:00,
2013-02-06 20:31:00,36.0,32.0,-100.00,SE,138,8.0,13.0,84,0.00,,,0.00,0.000000,,2013-02-07 04:31:00,
2013-02-06 20:41:00,36.0,32.0,-100.00,SE,138,8.0,13.0,84,0.00,,,0.00,0.000000,,2013-02-07 04:41:00,
2013-02-06 21:11:00,35.0,32.0,-100.00,SE,134,6.0,12.0,89,0.01,,,0.01,0.000000,,2013-02-07 05:11:00,
2013-02-06 21:21:00,35.0,32.0,-100.00,SE,134,6.0,12.0,89,0.01,,,0.01,0.000000,,2013-02-07 05:21:00,
2013-02-06 21:32:00,35.0,32.0,-100.00,SE,134,6.0,12.0,89,0.01,,,0.01,0.000000,,2013-02-07 05:32:00,
2013-02-06 21:42:00,35.0,32.0,-100.00,SE,134,6.0,12.0,89,0.01,,,0.01,0.000000,,2013-02-07 05:42:00,
2013-02-06 22:11:00,34.0,32.0,-100.00,East,95,5.0,8.0,93,0.00,,,0.01,0.000000,,2013-02-07 06:11:00,
2013-02-06 22:22:00,34.0,32.0,-100.00,East,95,5.0,8.0,93,0.00,,,0.01,0.000000,,2013-02-07 06:22:00,
2013-02-06 22:31:00,34.0,32.0,-100.00,East,95,5.0,8.0,93,0.00,,,0.01,0.000000,,2013-02-07 06:31:00,
2013-02-06 22:43:00,34.0,32.0,-100.00,East,95,5.0,8.0,93,0.00,,,0.01,0.000000,,2013-02-07 06:43:00,
2013-02-06 23:11:00,32.0,30.0,-100.00,ENE,77,6.0,7.0,93,0.00,,,0.01,0.000000,,2013-02-07 07:11:00,
2013-02-06 23:21:00,32.0,30.0,-100.00,ENE,77,6.0,7.0,93,0.00,,,0.01,0.000000,,2013-02-07 07:21:00,
2013-02-06 23:31:00,32.0,30.0,-100.00,ENE,77,6.0,7.0,93,0.00,,,0.01,0.000000,,2013-02-07 07:31:00,
2013-02-06 23:41:00,32.0,30.0,-100.00,ENE,77,6.0,7.0,93,0.00,,,0.01,0.000000,,2013-02-07 07:41:00,